[[{"header":{"parameterUnit":"m.s-1","parameterCategory":1,"la1":30.2991,"la2":30.254,"lo1":-89.0895,"lo2":-89.0444,"dy":0.0017,"dx":0.0017,"nx":28,"ny":28,"refTime":"2025-04-14T09:00:00:Z","depth":0,"parameterNumber":2,"parameterNumberName":"U-component_of_WINDS"},"data":[0,0,0,0,0,0,0,0,0,0,0,0,0,0,0,0,0,0,0,0,0,0,0,0,0,0,0,0,0,0,0,0,0,0,0,0,0,0,0,0,0,0,0,0,0,0,0,0,0,0,0,0,0,0,0,0,0,0,4.445,4.4452,0,4.4634,4.4636,4.4638,4.4624,4.4621,4.4618,4.4616,4.4806,4.4814,4.4821,0,0,0,0,0,0,0,0,0,0,0,0,0,4.409,4.4097,4.445,4.4452,4.4454,4.4633,4.4636,4.4638,4.4624,4.4621,4.4617,4.4614,4.4804,4.4813,4.4822,0,0,0,0,0,0,0,0,0,0,0,0,0,4.4258,4.4099,4.4449,4.4469,4.4472,4.4633,4.4636,4.4639,4.4625,4.4621,4.4617,4.4613,4.4801,4.4812,4.4823,4.4977,0,0,4.4859,4.4864,0,0,0,0,0,0,0,0,4.4248,4.4271,4.4464,4.4468,4.4472,4.4601,4.4579,4.4753,4.4626,4.4567,4.4616,4.4611,4.4742,4.4758,4.4802,4.4986,4.4994,4.486,4.4867,4.4871,4.4875,0,0,0,0,0,0,0,4.4237,4.4263,4.4522,4.4466,4.4472,4.447,4.4489,4.4612,4.4676,4.4572,4.4571,4.4593,4.4743,4.479,4.4806,4.4997,4.4859,4.4869,4.4877,4.4881,4.532,4.5325,0,0,0,0,0,0,4.422,4.4253,4.4517,4.4528,4.4347,4.4479,4.4501,4.4564,4.4674,4.4687,4.4596,4.4592,4.4773,4.4793,4.4813,4.5001,4.4871,4.4882,4.4889,4.5315,4.5321,4.5326,0,0,0,0,0,0,4.4212,4.4244,4.4509,4.4391,4.4424,4.449,4.4561,4.457,4.4617,4.4693,4.4704,4.4633,4.477,4.4796,4.4937,4.5008,4.4887,4.4898,4.531,4.5317,4.5324,4.5379,0,0,0,0,0,0,4.4202,4.4241,4.4299,4.4392,4.4431,4.4629,4.4565,4.4577,4.4637,4.4632,4.473,4.4742,4.4769,4.492,4.4948,4.5021,4.4907,4.5304,4.5313,4.5321,4.5371,4.5387,4.5401,0,0,0,0,0,4.4189,4.4307,4.4302,4.4334,4.4504,4.4633,4.4656,4.4684,4.4642,4.4702,4.4751,4.4739,4.4995,4.4934,4.4966,4.5044,4.5299,4.531,4.5321,4.5365,4.5384,4.5401,0,0,0,0,0,0,4.4221,4.432,4.4315,4.4466,4.4542,4.4631,4.4707,4.4703,4.4792,4.4785,4.4817,4.4839,4.498,4.5026,4.4956,4.52,4.5142,4.516,4.5165,4.5184,4.5198,4.5185,4.4916,0,0,0,0,0,4.4246,4.4341,4.4423,4.4549,4.4587,4.464,4.4697,4.4713,4.4792,4.4824,4.4883,4.4962,4.5061,4.5125,4.5219,4.5378,4.54,4.5448,4.5462,4.5474,4.5489,4.5579,4.5601,4.5362,4.5361,4.5361,0,0,4.4298,4.4363,4.4422,4.4557,4.4617,4.4716,4.4667,4.4774,4.4849,4.4841,4.4977,4.5024,4.5114,4.5264,4.5334,4.5307,4.5561,4.5488,4.5497,4.5506,4.5592,4.5615,4.5635,4.5369,4.5367,4.5366,0,0,4.4443,4.4502,4.4614,4.4676,4.4767,4.4803,4.483,4.492,4.4951,4.5088,4.5084,4.5175,4.5343,4.5408,4.5463,4.5636,4.5629,4.5666,4.5744,4.5831,4.5849,4.5866,4.5929,4.5952,4.568,4.5681,4.5681,0,4.4497,4.4645,4.4672,4.4781,4.4841,4.4839,4.4953,4.5012,4.513,4.5173,4.5141,4.5354,4.5414,4.5581,4.5623,4.5667,4.5701,4.5655,4.5844,4.5862,4.5878,4.5938,4.5962,4.5685,4.5684,4.5684,4.5683,0,4.4707,4.4811,4.4891,4.5005,4.5074,4.5185,4.5231,4.5298,4.5308,4.5347,4.5488,4.5561,4.5671,4.5712,4.5722,4.5881,4.5862,4.5837,4.578,4.5904,4.5962,4.5985,4.569,4.5689,4.5688,4.5687,0,0,4.4877,4.5006,4.5035,4.5087,4.5189,4.5271,4.5383,4.549,4.5548,4.563,4.5726,4.587,4.5848,4.5911,4.5929,4.6005,4.6139,4.5971,4.5974,4.6001,4.6321,4.6339,4.6366,4.6135,4.614,4.6143,4.6314,0,4.5034,4.5231,4.526,4.5435,4.5532,4.5532,4.563,4.5704,4.5744,4.5833,4.5878,4.598,4.5943,4.5981,4.6056,4.6107,4.6204,4.6095,4.6226,4.6231,4.6204,4.6396,4.6415,4.6572,4.6336,4.634,4.6343,0,4.5243,4.5331,4.5515,4.5606,4.5648,4.5735,4.5837,4.5922,4.6007,4.6031,4.6101,4.6111,4.6229,4.6167,4.6331,4.6256,4.6312,4.6345,4.6352,4.6366,4.6294,4.6415,4.6623,4.6647,4.6378,4.6375,4.6373,0,4.535,4.5515,4.5647,4.5692,4.58,4.5862,4.591,4.5991,4.6054,4.6144,4.6186,4.6288,4.6344,4.6424,4.6462,4.6412,4.6624,4.6564,4.6649,4.6648,4.6694,4.669,4.6914,4.6728,4.6728,4.6727,4.6727,0,4.5523,4.5636,4.5697,4.5778,4.5906,4.5938,4.6064,4.6111,4.6183,4.6275,4.6281,4.6367,4.6411,4.6504,4.6535,4.6667,4.6692,4.6716,4.6723,4.6716,4.6714,4.6754,4.6744,4.6734,4.6732,4.6731,4.673,0,4.5664,4.5709,4.5853,4.5944,4.597,4.606,4.6139,4.6219,4.6259,4.6375,4.6404,4.6468,4.6578,4.6623,4.6759,4.6779,4.6932,4.693,4.6903,4.6906,4.6988,4.698,4.7246,4.7283,4.7072,4.7074,4.7075,0,4.5772,4.5859,4.5959,4.6021,4.6071,4.617,4.6235,4.6271,4.6339,4.6443,4.6511,4.6621,4.6711,4.6888,4.6947,4.7052,4.7053,4.7139,4.7069,4.706,4.7056,4.705,4.706,4.7152,4.7154,4.7156,4.7157,0,4.5958,4.5977,4.6069,4.6171,4.6248,4.633,4.6409,4.646,4.6509,4.6585,4.6697,4.6767,4.6906,4.7016,4.7124,4.7175,4.7176,4.7179,4.7204,4.7198,4.718,4.7192,4.6939,4.7173,4.7171,4.717,4.7169,4.7168,4.6087,4.6165,4.6249,4.6352,4.6416,4.6491,4.6571,4.6621,4.6716,4.6831,4.6847,4.6968,4.7053,4.7198,4.7254,4.735,4.7328,4.7365,4.7374,4.7383,4.7389,4.7164,4.737,4.737,4.7369,4.7369,4.7369,0,4.6275,4.6329,4.6424,4.6536,4.6618,4.661,4.6698,4.6768,4.6874,4.6953,4.7041,4.7172,4.7279,4.7347,4.7456,4.752,4.7523,4.7548,4.7544,4.7556,4.7401,4.7369,4.7544,4.7544,4.7544,4.7544,4.7543,4.7543,4.6383,4.6515,4.6543,4.6708,4.6762,4.688,4.6931,4.7001,4.7064,4.721,4.7299,4.7342,4.7417,4.7531,4.763,4.7648,4.7688,4.7714,4.773,4.7585,4.7567,4.7549,4.7519,4.7722,4.7723,4.7877,4.7878,4.7879]},{"header":{"parameterUnit":"m.s-1","parameterCategory":1,"la1":30.2991,"la2":30.254,"lo1":-89.0895,"lo2":-89.0444,"dy":0.0017,"dx":0.0017,"nx":28,"ny":28,"refTime":"2025-04-14T09:00:00:Z","depth":0,"parameterNumber":3,"parameterNumberName":"V-component_of_WINDS"},"data":[0,0,0,0,0,0,0,0,0,0,0,0,0,0,0,0,0,0,0,0,0,0,0,0,0,0,0,0,0,0,0,0,0,0,0,0,0,0,0,0,0,0,0,0,0,0,0,0,0,0,0,0,0,0,0,0,0,0,-2.1251,-2.1252,0,-2.1265,-2.1265,-2.1265,-2.1294,-2.1295,-2.1295,-2.1296,-2.1306,-2.1306,-2.1306,0,0,0,0,0,0,0,0,0,0,0,0,0,-2.1248,-2.1248,-2.1251,-2.1252,-2.1252,-2.1265,-2.1265,-2.1265,-2.1294,-2.1295,-2.1295,-2.1296,-2.1306,-2.1306,-2.1306,0,0,0,0,0,0,0,0,0,0,0,0,0,-2.1254,-2.1248,-2.1251,-2.1268,-2.1269,-2.1265,-2.1265,-2.1265,-2.1294,-2.1295,-2.1296,-2.1297,-2.1307,-2.1306,-2.1306,-2.1285,0,0,-2.1305,-2.1304,0,0,0,0,0,0,0,0,-2.1254,-2.1254,-2.1265,-2.1267,-2.1268,-2.1279,-2.1268,-2.1272,-2.1294,-2.1284,-2.1296,-2.1297,-2.1296,-2.1297,-2.1297,-2.1286,-2.1286,-2.1304,-2.1304,-2.1304,-2.1304,0,0,0,0,0,0,0,-2.1253,-2.1254,-2.1257,-2.1265,-2.1267,-2.1274,-2.1276,-2.1269,-2.1285,-2.1285,-2.1287,-2.1289,-2.1297,-2.1298,-2.1298,-2.1286,-2.1304,-2.1304,-2.1304,-2.1304,-2.126,-2.1259,0,0,0,0,0,0,-2.1251,-2.1253,-2.1256,-2.1257,-2.1263,-2.1273,-2.1275,-2.1275,-2.1285,-2.1288,-2.1288,-2.129,-2.1298,-2.1298,-2.1298,-2.1276,-2.1304,-2.1304,-2.1303,-2.1261,-2.126,-2.1259,0,0,0,0,0,0,-2.1251,-2.1251,-2.1256,-2.1256,-2.1257,-2.1272,-2.1271,-2.1274,-2.1275,-2.1287,-2.129,-2.1286,-2.1299,-2.1299,-2.1289,-2.1277,-2.1303,-2.1303,-2.1262,-2.1261,-2.1259,-2.123,0,0,0,0,0,0,-2.1251,-2.1251,-2.1244,-2.1256,-2.1257,-2.1247,-2.127,-2.1274,-2.1274,-2.1277,-2.1286,-2.1288,-2.1299,-2.1289,-2.1288,-2.1276,-2.1303,-2.1263,-2.1262,-2.126,-2.1232,-2.1228,-2.1224,0,0,0,0,0,-2.125,-2.1234,-2.1243,-2.1243,-2.1248,-2.1246,-2.1247,-2.1261,-2.1273,-2.1266,-2.1274,-2.1288,-2.1278,-2.1288,-2.1287,-2.1275,-2.1264,-2.1262,-2.126,-2.1234,-2.1229,-2.1225,0,0,0,0,0,0,-2.1219,-2.1236,-2.1246,-2.1233,-2.1238,-2.1251,-2.1242,-2.1255,-2.1255,-2.1258,-2.1275,-2.1276,-2.1264,-2.1269,-2.1279,-2.1256,-2.1273,-2.1271,-2.1254,-2.1249,-2.1245,-2.1244,-2.1302,0,0,0,0,0,-2.1211,-2.1208,-2.1223,-2.121,-2.1212,-2.1226,-2.1226,-2.1237,-2.1242,-2.1244,-2.1251,-2.1255,-2.1253,-2.1251,-2.125,-2.1233,-2.1236,-2.1225,-2.1221,-2.1217,-2.1215,-2.1207,-2.1203,-2.1252,-2.1252,-2.1252,0,0,-2.1193,-2.1202,-2.1199,-2.1204,-2.1209,-2.1205,-2.1228,-2.1223,-2.122,-2.1243,-2.1234,-2.124,-2.1245,-2.1232,-2.1227,-2.1236,-2.1202,-2.1215,-2.1212,-2.1211,-2.1205,-2.12,-2.1196,-2.1251,-2.1251,-2.1251,0,0,-2.1159,-2.1166,-2.1156,-2.1161,-2.1169,-2.1179,-2.1177,-2.1188,-2.1193,-2.1186,-2.1203,-2.1199,-2.1195,-2.1199,-2.12,-2.1169,-2.1182,-2.1168,-2.1147,-2.1139,-2.1135,-2.1132,-2.1121,-2.1117,-2.1166,-2.1166,-2.1166,0,-2.1136,-2.1132,-2.1149,-2.1144,-2.1145,-2.1167,-2.1158,-2.1161,-2.1168,-2.1168,-2.1178,-2.1175,-2.1179,-2.1168,-2.1161,-2.1161,-2.1158,-2.1167,-2.1135,-2.1132,-2.1129,-2.1119,-2.1115,-2.1164,-2.1164,-2.1164,-2.1165,0,-2.1104,-2.1101,-2.1092,-2.11,-2.11,-2.1092,-2.1108,-2.1106,-2.1117,-2.1126,-2.1118,-2.1125,-2.1126,-2.1124,-2.1134,-2.1114,-2.112,-2.1132,-2.1149,-2.1122,-2.1113,-2.1109,-2.1162,-2.1162,-2.1163,-2.1163,0,0,-2.105,-2.1068,-2.1064,-2.1069,-2.108,-2.1077,-2.1071,-2.1073,-2.1072,-2.1075,-2.107,-2.1067,-2.1079,-2.108,-2.1091,-2.1084,-2.106,-2.1097,-2.1098,-2.1091,-2.1039,-2.103,-2.1025,-2.1069,-2.1068,-2.1067,-2.1039,0,-2.1019,-2.101,-2.1025,-2.1012,-2.101,-2.1031,-2.1025,-2.1031,-2.1039,-2.1038,-2.1047,-2.1045,-2.106,-2.1061,-2.1056,-2.1064,-2.105,-2.1066,-2.1063,-2.1063,-2.1062,-2.1021,-2.1011,-2.0983,-2.1035,-2.1035,-2.1034,0,-2.0981,-2.0985,-2.0972,-2.0985,-2.0985,-2.0979,-2.0983,-2.0982,-2.0989,-2.0996,-2.0998,-2.1011,-2.1005,-2.1022,-2.1014,-2.1025,-2.1025,-2.1029,-2.1028,-2.1028,-2.1047,-2.102,-2.0975,-2.0971,-2.1029,-2.1029,-2.103,0,-2.0944,-2.0946,-2.0939,-2.0941,-2.0956,-2.0952,-2.0957,-2.0966,-2.0966,-2.0969,-2.097,-2.0972,-2.0973,-2.0974,-2.0987,-2.0998,-2.0978,-2.0995,-2.0983,-2.0982,-2.0977,-2.0977,-2.0932,-2.0977,-2.0977,-2.0977,-2.0977,0,-2.0908,-2.0899,-2.0922,-2.0918,-2.0909,-2.0927,-2.0917,-2.0924,-2.0932,-2.0929,-2.0946,-2.0943,-2.0961,-2.0959,-2.097,-2.0962,-2.0962,-2.0967,-2.097,-2.0965,-2.0965,-2.0965,-2.0968,-2.0976,-2.0976,-2.0976,-2.0976,0,-2.0865,-2.088,-2.0873,-2.0888,-2.0892,-2.0884,-2.0897,-2.0893,-2.0903,-2.0899,-2.0899,-2.0914,-2.0914,-2.0927,-2.0929,-2.0936,-2.0923,-2.0929,-2.0921,-2.0923,-2.091,-2.0911,-2.0863,-2.0858,-2.0905,-2.0905,-2.0905,0,-2.0841,-2.0835,-2.085,-2.085,-2.0855,-2.0854,-2.0856,-2.0873,-2.0873,-2.0882,-2.0877,-2.0878,-2.088,-2.0877,-2.0888,-2.089,-2.0896,-2.0879,-2.0896,-2.0892,-2.0896,-2.0896,-2.0896,-2.0875,-2.0875,-2.0874,-2.0874,0,-2.0797,-2.0805,-2.0807,-2.0812,-2.0813,-2.0817,-2.0822,-2.0821,-2.084,-2.084,-2.084,-2.0841,-2.0844,-2.0844,-2.0848,-2.0853,-2.0867,-2.0869,-2.0866,-2.0861,-2.0857,-2.086,-2.0912,-2.0869,-2.087,-2.087,-2.087,-2.0871,-2.0763,-2.0759,-2.0769,-2.0771,-2.0777,-2.0782,-2.0779,-2.079,-2.079,-2.0795,-2.0805,-2.0803,-2.0811,-2.0818,-2.0822,-2.082,-2.0829,-2.0824,-2.0823,-2.0822,-2.082,-2.0857,-2.0821,-2.0821,-2.0821,-2.0821,-2.0822,0,-2.0721,-2.0729,-2.073,-2.0737,-2.0739,-2.0752,-2.0759,-2.0759,-2.0758,-2.0765,-2.0767,-2.0767,-2.0768,-2.0779,-2.0782,-2.0779,-2.0785,-2.0779,-2.0779,-2.078,-2.0812,-2.0815,-2.0774,-2.0774,-2.0774,-2.0774,-2.0774,-2.0774,-2.0699,-2.0693,-2.0703,-2.07,-2.0708,-2.0708,-2.071,-2.0715,-2.072,-2.0721,-2.0722,-2.073,-2.0738,-2.0742,-2.0743,-2.0747,-2.0747,-2.0738,-2.0744,-2.0773,-2.0778,-2.0782,-2.0785,-2.0738,-2.0738,-2.0712,-2.0712,-2.0712]}]]